www.pogodaiklimat.ru

Погода и климат >> Архив погоды >> Россия >> Еврейская автономная область >> Екатерино-Никольское


АРХИВ ПОГОДЫ в Екатерино-Никольском

Время (UTC), дата Ветер
(напр.,м/с)
 
Видим.   Явления Облачность Т
(С)
Тd
(С)
f
(%)
Тe
(С)
Тes
(С)
Комфортность P
(гПа)
Po
(гПа)
Тmin
(С)
Tmax
(С)
R
(мм)
R24
(мм)
S
(см)
09 10.07 ЮВ 2 50 км 10/3 600 м
[Sc Ac As Ci fib]
+27.7 +21.2 68 +35 +36 очень
душно
1009.4 1001.2 +28.3
12 10.07 СВ 1 20 км 10/3 600 м
[Sc Ac As Ci fib]
+23.3 +22.0 92 +32 +32 очень
душно
1009.7 1001.4
15 10.07 В 1 20 км 8/0
[Ac As Ci fib]
+20.0 +19.5 97 +25 +25 комфорт 1009.8 1001.4
18 10.07 штиль 0 20 км 8/0
[Ac As Ci fib]
+17.7 +17.1 96 +18 +18 1009.9 1001.5
21 10.07 В 1 20 км 10/4 600 м
[Sc Ac As Ci]
+18.7 +18.2 97 +21 +21 комфорт 1010.2 1001.8 +16.3
00 11.07 В 2 50 км 8/0
[Ac As Ci]
+23.8 +15.2 59 +27 +32 жарко 1009.6 1001.4
03 11.07 ЮВ 3 50 км 9/4 600 м
[Sc Ac trans Ci fib]
+25.6 +15.7 54 +29 +34 душно 1008.5 1000.3
06 11.07 Ю 3 50 км 9/5 600 м
[Sc Ac trans Ci fib]
+25.7 +14.7 51 +28 +31 жарко 1006.7 998.5
09 11.07 ЮВ 2 50 км 10/5 600 м
[Sc Ac trans Ci fib]
+24.3 +15.4 58 +27 +28 жарко 1005.6 997.4 +26.7
12 11.07 СВ 1 20 км 10/8 600 м
[Cb cap Ac As Ci fib]
+20.0 +17.1 83 +24 +24 комфорт 1006.0 997.7
15 11.07 СЗ 1 20 км 10/3 600 м
[Sc Ac As Ci fib]
+17.5 +16.9 96 +19 +19 1005.2 996.8
18 11.07 СЗ 2 20 км 10/3 600 м
[Sc Ac As Ci fib]
+15.8 +15.3 97 +16 +16 1004.6 996.2
21 11.07 СЗ 1 50 км 10/4 600 м
[Sc Ac As Ci fib]
+16.2 +15.7 97 +17 +17 1004.9 996.5 +15.0
00 12.07 СВ 3 50 км 10/4 600 м
[Cb calv Ac trans Ci fib]
+22.0 +16.7 72 +26 +29 душно 1004.5 996.3
03 12.07 В 2 50 км 10/6 600 м
[Cb calv Ac trans Ci fib]
+25.7 +15.8 54 +29 +32 душно 1003.7 995.5
06 12.07 Ю 2 50 км 10/8 600 м
[Cb calv Ac trans Ci fib]
+25.2 +17.1 61 +29 +30 душно 1002.3 994.1
09 12.07 В 2 50 км 10/8 600 м
[Cb calv Ac trans Ci fib]
+26.0 +16.4 55 +29 +30 душно 1001.9 993.7 +26.8
12 12.07 З 1 20 км 10/8 600 м
[Sc Ac trans Ci fib]
+19.2 +17.8 92 +22 +22 комфорт 1003.3 995.0
15 12.07 СЗ 2 20 км 10/4 600 м
[Sc Ac trans Ci fib]
+18.1 +17.2 94 +19 +19 1003.2 994.8
18 12.07 СЗ 2 20 км 10/4 600 м
[Sc Ac trans Ci fib]
+17.1 +16.4 96 +17 +17 1003.5 995.1
21 12.07 СЗ 3 50 км 10/5 600 м
[Sc Ac trans Ci fib]
+17.5 +16.7 95 +17 +18 1004.4 996.0 +16.9
00 13.07 С 3 20 км 10/8 600 м
[Sc Ac As Cs]
+21.9 +19.3 85 +27 +28 душно 1004.9 996.6
03 13.07 В 2 20 км 10/8 600 м
[Cb calv Ac As Ci fib]
+25.7 +19.0 67 +31 +33 очень
душно
1004.2 996.0
06 13.07 С 3 20 км 10/8 600 м
[Cb cap Ac As Ci]
+24.1 +16.8 64 +28 +29 душно 1003.0 994.8
09 13.07 СЗ 1 50 км {гроза, ливн. осадки} 10/4 600 м
[Cb cap Ac As Ci ing]
+25.4 +19.5 70 +31 +32 очень
душно
1002.3 994.2 +27.3 0.0
12 13.07 С 1 20 км {гроза, ливн. осадки} 10/8 600 м
[Cb cap Ac trans Ci fib]
+21.8 +20.1 90 +27 +27 душно 1003.9 995.6
15 13.07 СВ 2 20 км 10/8 600 м
[Cb cap Ac trans Ci fib]
+20.6 +19.1 91 +25 +25 комфорт 1004.5 996.2
18 13.07 В 1 20 км 10/3 600 м
[Sc Ac trans Ci fib]
+19.0 +18.0 94 +22 +22 комфорт 1005.0 996.6
21 13.07 СВ 1 20 км 10/8 600 м
[Cb cap Ac As]
+19.4 +18.8 96 +23 +23 комфорт 1005.6 997.2 +18.1
00 14.07 В 2 50 км 10/8 600 м
[Cb cap Ac As]
+22.3 +19.0 82 +28 +29 душно 1005.9 997.6
03 14.07 В 2 50 км 10/8 600 м
[Cb cap Ac und]
+24.4 +19.2 73 +29 +31 душно 1005.5 997.3
06 14.07 ЮВ 3 50 км 10/6 600 м
[Cb cap Ac As Ci fib]
+26.7 +18.3 60 +31 +33 душно 1004.3 996.1
09 14.07 С 2 50 км гроза без осадков 10/6 600 м
[Cb cap Ac As Ci fib]
+22.9 +19.1 79 +29 +29 очень
душно
1004.7 996.5 +27.3
12 14.07 С 2 20 км {гроза} 10/4 600 м
[Cb cap Ac As Ci]
+20.2 +18.4 89 +24 +24 комфорт 1006.2 997.9
15 14.07 СВ 1 20 км 10/6 600 м
[Cb cap Ac As Ci ing]
+19.4 +18.3 93 +23 +23 комфорт 1007.0 998.6
18 14.07 СВ 1 20 км 10/8 600 м
[Cb cap Ac As Ci ing]
+19.6 +18.9 96 +23 +23 комфорт 1007.1 998.8
21 14.07 СВ 2 20 км 10/8 600 м
[Cb cap Ac As]
+19.9 +19.0 95 +24 +24 комфорт 1008.2 999.9 +18.8
00 15.07 В 2 20 км 10/8 600 м
[Sc Ac und]
+23.0 +19.5 81 +30 +30 очень
душно
1008.6 1000.4
03 15.07 ЮВ 2 20 км 10/8 600 м
[Cb calv Ac trans Ci fib]
+24.5 +18.6 70 +29 +31 душно 1008.8 1000.5
06 15.07 ЮВ 4 50 км {гроза, ливн. осадки} 10/8 600 м
[Cb calv Ac trans Ci fib]
+25.5 +18.6 66 +30 +31 душно 1008.1 999.9
09 15.07 ЮВ 3 50 км 10/8 600 м
[Cb calv Ac trans Ci fib]
+25.5 +17.8 62 +30 +30 душно 1008.1 999.9 +25.9 3
12 15.07 СВ 1 20 км 10/6 600 м
[Cb cap Ac As Ci fib]
+20.3 +18.7 91 +25 +25 комфорт 1009.2 1000.8
15 15.07 С 1 20 км 10/8 600 м
[Cb cap Ac As]
+19.8 +18.8 94 +24 +24 комфорт 1009.5 1001.1
18 15.07 СВ 1 20 км 10/8 600 м
[Cb cap Ac As Ci fib]
+18.5 +17.8 96 +20 +20 1009.5 1001.1
21 15.07 В 1 20 км 10/8 600 м
[Cb cap Ac As]
+19.4 +18.7 96 +23 +23 комфорт 1009.7 1001.3 +18.3
00 16.07 ЮВ 1 20 км 10/8 600 м
[Cb calv Ac As]
+22.3 +18.9 81 +28 +29 душно 1009.8 1001.5
03 16.07 ЮВ 2 20 км 10/8 600 м
[Cb calv Ac As]
+24.2 +19.5 75 +29 +30 душно 1009.5 1001.3
06 16.07 ЮВ 3 50 км 10/8 600 м
[Cb calv Ac trans Ci fib]
+24.9 +19.5 72 +30 +31 душно 1008.0 999.8
09 16.07 ЮВ 3 50 км 10/8 600 м
[Cb cap Ac trans Ci fib]
+24.8 +19.2 71 +30 +30 душно 1007.7 999.5 +24.9
12 16.07 В 1 20 км 10/8 600 м
[Cb calv Ac trans Ci fib]
+21.5 +18.9 85 +26 +26 душно 1007.8 999.5
15 16.07 СВ 1 20 км 10/8 600 м
[Cb calv Ac trans]
+20.2 +18.8 92 +25 +25 комфорт 1007.5 999.1
18 16.07 СВ 1 10 км слаб. ливневой дождь 10/10 600 м
[Cb calv]
+19.6 +18.8 95 +23 +23 комфорт 1006.8 998.4
21 16.07 СВ 2 10 км слаб. ливневой дождь 10/10 600 м
[Cb calv]
+19.7 +19.1 96 +23 +23 комфорт 1005.8 997.4 +19.4 7
00 17.07 ЮВ 4 4000 м ливневой дождь {гроза} 10/10 600 м
[Cb cap]
+20.0 +19.3 96 +23 +23 комфорт 1005.0 996.6
03 17.07 Ю 3 20 км {ливн. осадки} 10/10 600 м
[Cb cap]
+21.5 +20.5 94 +27 +27 душно 1003.8 995.6

 

Местоположение метеостанции Екатерино-Никольское (Еврейская автономная область, Россия): широта 47.75 долгота 130.90 высота над уровнем моря 72 м.

В архиве по умолчанию представлена погода в Екатерино-Никольском за последнюю неделю. Архивные данные за месяц целиком и за предыдущие месяцы, начиная с января 2011 года, Вы можете получить, выбрав интересующий диапазон дат из раскрывающегося списка и нажав кнопку "Ввод!".


*Определитесь, кто Вы:
робот инопланетянин человек

Внимание! Время в таблицах - всемирное. Для получения местного времени необходимо прибавить поправку, которая равна 10 ч.

Смотрите также архив погоды в соседних городах и на ближайших метеорологических станциях:

Погода в Биджане (Еврейская автономная область, Россия) (76 км)
Погода в Фуцзине (Хэйлунцзян, Китай) (100 км)
Погода в Ленинское (Еврейская автономная область, Россия) (129 км)
Погода в Облучье (Еврейская автономная область, Россия) (139 км)
Погода в Ичунь (Хэйлунцзян, Китай) (150 км)
Погода в Биробиджане (Еврейская автономная область, Россия) (184 км)
Погода в Баоцине (Хэйлунцзян, Китай) (186 км)
Погода в Архаре (Амурская область, Россия) (197 км)
Погода в Смидовиче (Еврейская автономная область, Россия) (235 км)
Погода в Малиновке (Амурская область, Россия) (237 км)

Пояснения к столбцам:

Ветер - указаны скорость ветра в м/с - средняя за 10 мин, порывы в срок и между сроками (в фигурных скобках) и направление, откуда дует ветер: С - северный, СВ - северо-восточный, В - восточный, ЮВ - юго-восточный, Ю - южный, ЮЗ - юго-западный, З - западный, СЗ - северо-западный.
Видимость - горизонтальная дальность видимости в метрах или километрах. При видимости от 1 до 10 км при отсутствии осадков обычно наблюдается дымка, при ухудшении видимости до 1 км и менее - туман. В сухую погоду видимость может ухудшаться дымом, пылью или мглою.
Явления - указаны атмосферные явления, наблюдавшиеся в срок или в последний час перед сроком; фигурными скобками обозначены явления, наблюдавшиеся между сроками (за 1-3 часа до срока); квадратными скобками обозначены град или гололедные отложения с указанием их диаметра в мм.
Облачность - указаны через наклонную черту общая и нижняя облачность в баллах и высота нижней границы облаков в метрах; квадратными скобками обозначены формы облаков: Ci - перистые, Cs - перисто-слоистые, Cc - перисто-кучевые, Ac - высококучевые, As - высокослоистые, Sc - слоисто-кучевые, Ns - слоисто-дождевые, Cu - кучевые, Cb - кучево-дождевые. Подробнее классификацию облаков см. в Атласе облаков (PDF).
T - Температура воздуха - температура, измеренная на высоте 2 м над землей.
Td - Температура точки росы - температура, при понижении до которой содержащийся в воздухе водяной пар достигнет насыщения.
f - Относительная влажность воздуха - влажноcть воздуха, измеренная на высоте 2 м над землей.
Te - Эффективная температура - температура, которую ощущает одетый по сезону человек в тени. Характеристика душности погоды. При расчете учитывается влияние влажности воздуха и скорости ветра на теплоощущения человека.
Tes - Эффективная температура на солнце - температура, которую ощущает человек, с поправкой на солнечный нагрев. Характеристика знойности погоды. Зависит от высоты солнца над горизонтом, облачности и скорости ветра. Ночью, в пасмурную погоду, а также при ветре 12 м/с и более поправка равна нулю.
P - Атмосферное давление - приведенное к уровню моря атмосферное давление.
Po - Атмосферное давление - измеренное на уровне метеостанции атмосферное давление.
Tmin - Минимальная температура - минимум температуры воздуха на высоте 2 м над землей.
Tmax - Максимальная температура - максимум температуры воздуха на высоте 2 м над землей.
R - Количество осадков - Количество выпавших осадков за период времени, мм. При наведении курсора мыши на число - период времени, за который выпало указанное количество осадков.
R24 - Количество осадков - Количество выпавших осадков за 24 часа, мм.
S - Снежный покров - Высота снежного покрова, см. При наведении курсора мыши на число - состояние снежного покрова и степень покрытия местности в баллах.